News

Statistiques des heures de vol au 9 mars 2014

Les statistiques des heures de vol réalisées sont à votre disposition dans la rubrique "Membres"...

Café-croissants

La liste des café-croissants 2014 de la région Centre est accessible dans l'agenda.

L'Assemblée générale 2014 dans la NR

Tout va pour le mieux pour les 115 membres de l'Aéroclub de Touraine, qui, tant au niveau des...

Accueil

 Bienvenue sur le site de l'Aéroclub de Touraine !

Patrouille présentation 3 avions - 9 Octobre 2013.

 

  Ce site est en constante évolution.

Il vous permet de découvrir nos activités, et de vous donner envie de nous rejoindre et d'apprendre à piloter.

L'Aéroclub de Touraine est situé au Sud de l'agglomération Tourangelle, sur la plateforme de Tours-Sorigny (carte VAC)

C'est l'un des plus ancien Aéroclub de France, fondé en 1908. L'Aéroclub de Touraine est une association loi 1901 dynamique affilié à la Fédération Française Aéronautique.

Tous les efforts sont faits pour maintenir une flotte d'avions bien équipés et récents, régulièrement renouvelés.

L'Aéroclub de Touraine est un club de passionnés de l'aéronautique qui vous feront découvrir leurs activités: balades, voyages, rallyes aériens, vols en patrouille

Mais l'Aéroclub de Touraine, c'est aussi une école de pilotage , forte d'un instructeur professionnel salarié et de 4 instructeurs bénévoles permettant à nos élèves de progresser en toute sécurité dans l'apprentissage du vol moteur.

Alors n'hésitez pas à nous rendre visite, l'accueil est aussi un des points forts de l'Aéroclub de Touraine

 

Sites amis

                        

 

Météo

[source: ADDS]
METAR
TAF LFOT 241400Z 2415/2424 17004KT 9999 SCT035 BKN120 TEMPO 2415/2418 -RA BKN015 BECMG 2418/2420 BKN030TCU PROB30 TEMPO 2420/2424 4000 TSRA SCT025CB BKN030 TAF
TAF LFOT 241400Z 2415/2424 17004KT 9999 SCT035 BKN120 TEMPO 2415/2418 -RA BKN015 BECMG 2418/2420 BKN030TCU PROB30 TEMPO 2420/2424 4000 TSRA SCT025CB BKN030 =
SR / SS: 04:51 / 18:58 UTC (LFEN 2014-04-24)

Login Form



Facebook